Previsão horária em Alins

Hoje, 21 Janeiro, Quinta-feira

Tempo Temperatura Precipitação Vento Pressão Humidade
00:00 +1°C° 0 mm 1 m/s 631 mmHg 97%
01:00 +1°C° 0.5 mm 1 m/s 631 mmHg 97%
02:00 +1°C° 0.5 mm 1 m/s 631 mmHg 97%
03:00 +2°C° 0.5 mm 1 m/s 631 mmHg 97%
04:00 +2°C° 0.1 mm 1 m/s 632 mmHg 97%
05:00 +2°C° 0.1 mm 1 m/s 632 mmHg 97%
06:00 +2°C° 0.1 mm 1 m/s 632 mmHg 97%
07:00 +2°C° 0 mm 1 m/s 633 mmHg 97%
08:00 +2°C° 0 mm 1 m/s 633 mmHg 97%
09:00 +2°C° 0 mm 1 m/s 633 mmHg 96%
10:00 +3°C° 0 mm 1 m/s 633 mmHg 95%
11:00 +2°C° 0 mm 2 m/s 633 mmHg 94%
12:00 +3°C° 0 mm 2 m/s 633 mmHg 93%
13:00 +3°C° 0.1 mm 2 m/s 633 mmHg 94%
14:00 +2°C° 0.1 mm 2 m/s 632 mmHg 94%
15:00 +2°C° 0.1 mm 2 m/s 631 mmHg 94%
16:00 +2°C° 1.1 mm 2 m/s 631 mmHg 95%
17:00 +2°C° 1.1 mm 2 m/s 631 mmHg 96%
18:00 +1°C° 1.1 mm 2 m/s 631 mmHg 97%
19:00 +2°C° 1 mm 2 m/s 631 mmHg 97%
20:00 +3°C° 1 mm 1 m/s 631 mmHg 97%
21:00 +3°C° 1 mm 1 m/s 631 mmHg 97%
22:00 +3°C° 0.1 mm 1 m/s 631 mmHg 97%
23:00 +2°C° 0.1 mm 2 m/s 631 mmHg 97%

Amanhã, 22 Janeiro, Sexta-feira

Tempo Temperatura Precipitação Vento Pressão Humidade
00:00 +2°C° 0.1 mm 2 m/s 631 mmHg 97%
01:00 +2°C° 0.7 mm 2 m/s 630 mmHg 97%
02:00 +2°C° 0.7 mm 2 m/s 629 mmHg 98%
03:00 +1°C° 0.7 mm 3 m/s 629 mmHg 98%
04:00 +1°C° 2.2 mm 3 m/s 628 mmHg 98%
05:00 +1°C° 2.2 mm 3 m/s 627 mmHg 98%
06:00 0°C° 2.2 mm 4 m/s 626 mmHg 98%
07:00 +1°C° 3.7 mm 3 m/s 626 mmHg 97%
08:00 0°C° 3.7 mm 3 m/s 625 mmHg 96%
09:00 0°C° 3.7 mm 3 m/s 625 mmHg 95%
10:00 +1°C° 0.3 mm 2 m/s 625 mmHg 94%
11:00 +1°C° 0.3 mm 2 m/s 626 mmHg 93%
12:00 +1°C° 0.3 mm 2 m/s 626 mmHg 92%
13:00 +1°C° 0.5 mm 2 m/s 627 mmHg 90%
14:00 +1°C° 0.5 mm 2 m/s 628 mmHg 88%
15:00 0°C° 0.5 mm 3 m/s 628 mmHg 86%
16:00 -1°C° 0.2 mm 3 m/s 628 mmHg 87%
17:00 -4°C° 0.2 mm 3 m/s 628 mmHg 87%
18:00 -5°C° 0.2 mm 3 m/s 628 mmHg 87%
19:00 -6°C° 0 mm 3 m/s 629 mmHg 87%
20:00 -5°C° 0 mm 2 m/s 629 mmHg 86%
21:00 -6°C° 0 mm 2 m/s 629 mmHg 85%
22:00 -6°C° 0 mm 2 m/s 629 mmHg 85%
23:00 -6°C° 0 mm 2 m/s 629 mmHg 84%

Depois de amanhã, 23 Janeiro, Sábado

Tempo Temperatura Precipitação Vento Pressão Humidade
00:00 -4°C° 0 mm 1 m/s 630 mmHg 83%
01:00 -4°C° 0 mm 1 m/s 629 mmHg 82%
02:00 -6°C° 0 mm 1 m/s 629 mmHg 82%
03:00 -6°C° 0 mm 1 m/s 628 mmHg 82%
04:00 -6°C° 0.1 mm 1 m/s 628 mmHg 85%
05:00 -4°C° 0.1 mm 1 m/s 628 mmHg 89%
06:00 -4°C° 0.1 mm 1 m/s 628 mmHg 93%
07:00 -3°C° 0.4 mm 1 m/s 628 mmHg 94%
08:00 -5°C° 0.4 mm 2 m/s 628 mmHg 95%
09:00 -4°C° 0.4 mm 2 m/s 629 mmHg 96%
10:00 -3°C° 0.2 mm 2 m/s 629 mmHg 89%
11:00 -2°C° 0.2 mm 3 m/s 630 mmHg 83%
12:00 0°C° 0.2 mm 3 m/s 630 mmHg 77%
13:00 0°C° 0.1 mm 3 m/s 630 mmHg 78%
14:00 0°C° 0.1 mm 3 m/s 630 mmHg 79%
15:00 0°C° 0.1 mm 3 m/s 630 mmHg 80%
16:00 -2°C° 0 mm 2 m/s 630 mmHg 83%
17:00 -1°C° 0 mm 1 m/s 629 mmHg 86%
18:00 -2°C° 0 mm 1 m/s 629 mmHg 90%
19:00 -2°C° 0 mm 1 m/s 629 mmHg 90%
20:00 -2°C° 0 mm 1 m/s 628 mmHg 91%
21:00 -3°C° 0 mm 0 m/s 628 mmHg 92%
22:00 -3°C° 0.1 mm 1 m/s 628 mmHg 93%
23:00 -3°C° 0.1 mm 1 m/s 627 mmHg 94%

24 Janeiro, Domingo

Tempo Temperatura Precipitação Vento Pressão Humidade
00:00 -3°C° 0.1 mm 1 m/s 627 mmHg 96%
01:00 -3°C° 0.3 mm 1 m/s 627 mmHg 96%
02:00 -2°C° 0.3 mm 1 m/s 627 mmHg 96%
03:00 -4°C° 0.3 mm 2 m/s 627 mmHg 95%
04:00 -5°C° 0.2 mm 2 m/s 627 mmHg 93%
05:00 -6°C° 0.2 mm 3 m/s 628 mmHg 90%
06:00 -7°C° 0.2 mm 3 m/s 628 mmHg 88%
07:00 -6°C° 0 mm 3 m/s 629 mmHg 85%
08:00 -5°C° 0 mm 2 m/s 630 mmHg 82%
09:00 -4°C° 0 mm 2 m/s 630 mmHg 80%
10:00 -3°C° 0 mm 2 m/s 631 mmHg 77%
11:00 -2°C° 0 mm 2 m/s 631 mmHg 74%
12:00 +1°C° 0 mm 2 m/s 632 mmHg 71%
13:00 +1°C° 0.1 mm 2 m/s 632 mmHg 73%
14:00 +1°C° 0.1 mm 2 m/s 632 mmHg 76%
15:00 +1°C° 0.1 mm 2 m/s 632 mmHg 79%
16:00 -2°C° 0.2 mm 2 m/s 632 mmHg 83%
17:00 -3°C° 0.2 mm 2 m/s 632 mmHg 86%
18:00 -5°C° 0.2 mm 2 m/s 632 mmHg 90%
19:00 -5°C° 0.2 mm 2 m/s 632 mmHg 89%
20:00 -5°C° 0.2 mm 2 m/s 632 mmHg 88%
21:00 -5°C° 0.2 mm 2 m/s 632 mmHg 87%
22:00 -5°C° 0.1 mm 2 m/s 632 mmHg 87%
23:00 -6°C° 0.1 mm 2 m/s 633 mmHg 86%

25 Janeiro, Segunda-feira

Tempo Temperatura Precipitação Vento Pressão Humidade
00:00 -6°C° 0.1 mm 2 m/s 633 mmHg 85%
01:00 -6°C° 0.1 mm 2 m/s 633 mmHg 85%
02:00 -6°C° 0.1 mm 2 m/s 633 mmHg 85%
03:00 -6°C° 0.1 mm 2 m/s 633 mmHg 84%
04:00 -6°C° 0.1 mm 2 m/s 633 mmHg 84%
05:00 -6°C° 0.1 mm 2 m/s 633 mmHg 84%
06:00 -6°C° 0.1 mm 2 m/s 634 mmHg 83%
07:00 -5°C° 0.1 mm 2 m/s 635 mmHg 82%
08:00 -4°C° 0.1 mm 2 m/s 636 mmHg 80%
09:00 -3°C° 0.1 mm 2 m/s 637 mmHg 79%
10:00 -2°C° 0 mm 2 m/s 637 mmHg 75%
11:00 -1°C° 0 mm 2 m/s 638 mmHg 71%
12:00 +2°C° 0 mm 1 m/s 638 mmHg 67%
13:00 +2°C° 0 mm 1 m/s 638 mmHg 69%
14:00 +2°C° 0 mm 1 m/s 638 mmHg 71%
15:00 +2°C° 0 mm 1 m/s 638 mmHg 73%
16:00 +1°C° 0 mm 1 m/s 638 mmHg 75%
17:00 0°C° 0 mm 1 m/s 638 mmHg 78%
18:00 -2°C° 0 mm 1 m/s 638 mmHg 80%
19:00 -2°C° 0 mm 1 m/s 638 mmHg 78%
20:00 -2°C° 0 mm 1 m/s 638 mmHg 77%
21:00 -2°C° 0 mm 1 m/s 638 mmHg 75%
22:00 -2°C° 0 mm 1 m/s 638 mmHg 75%
23:00 -3°C° 0 mm 1 m/s 638 mmHg 74%

26 Janeiro, Terça-feira

Tempo Temperatura Precipitação Vento Pressão Humidade
00:00 -3°C° 0 mm 1 m/s 638 mmHg 74%
01:00 -3°C° 0 mm 1 m/s 638 mmHg 73%
02:00 -3°C° 0 mm 1 m/s 637 mmHg 72%
03:00 -3°C° 0 mm 1 m/s 637 mmHg 72%
04:00 -2°C° 0 mm 1 m/s 637 mmHg 70%
05:00 -2°C° 0 mm 1 m/s 637 mmHg 69%
06:00 -2°C° 0 mm 1 m/s 636 mmHg 68%
07:00 0°C° 0 mm 1 m/s 637 mmHg 69%
08:00 +1°C° 0 mm 1 m/s 637 mmHg 69%
09:00 +1°C° 0 mm 0 m/s 638 mmHg 70%
10:00 +2°C° 0.2 mm 0 m/s 638 mmHg 74%
11:00 +3°C° 0.2 mm 1 m/s 638 mmHg 77%
12:00 +4°C° 0.2 mm 1 m/s 638 mmHg 81%
13:00 +4°C° 1 mm 1 m/s 638 mmHg 83%
14:00 +4°C° 1 mm 1 m/s 638 mmHg 86%
15:00 +5°C° 1 mm 1 m/s 638 mmHg 89%
16:00 +4°C° 0.5 mm 1 m/s 638 mmHg 91%
17:00 +3°C° 0.5 mm 2 m/s 638 mmHg 93%
18:00 +3°C° 0.5 mm 2 m/s 638 mmHg 95%
19:00 +3°C° 0.4 mm 2 m/s 639 mmHg 95%
20:00 +3°C° 0.4 mm 2 m/s 639 mmHg 95%
21:00 +3°C° 0.4 mm 2 m/s 640 mmHg 94%
22:00 +3°C° 0.1 mm 2 m/s 640 mmHg 94%
23:00 +2°C° 0.1 mm 3 m/s 640 mmHg 94%
Mostrar mais

Necessitamos do seu Consentimento

A Meteoprog e os seus Fornecedores de Serviços podem armazenar e aceder a dados pessoais como cookies, identificadores do dispositivo ou outras tecnologias semelhantes existentes no seu dispositivo e processar estes dados para personalizar conteúdos e anúncios, assim como funcionalidades nas redes sociais e análise de tráfego.

  • Armazenar e/ou aceder a informações no seu dispositivo

    Os cookies, identificadores do dispositivo ou outras informações podem ser armazenados ou acedidos no seu dispositivo, para os fins acima indicados.

  • Anúncios e conteúdos personalizados, medição de anúncios e conteúdos, dados sobre o público-alvo e desenvolvimento de produtos

    Os anúncios e os conteúdos podem ser personalizados com base num perfil. Podem ser adicionados dados adicionais para uma maior personalização dos anúncios e dos conteúdos. A eficácia dos anúncios e dos conteúdos pode ser medida. Podem ser obtidas informações sobre o público que visualizou os anúncios e os conteúdos. Estes dados podem ser usados para desenvolver ou melhorar sistemas, softwares ou a experiência do utilizador.

Ao clicar em "Eu concordo”, permitirá o uso de cookies, identificadores do dispositivo e web beacons mencionados ou outras tecnologias semelhantes. As configurações do navegador do seu dispositivo podem ser alteradas.

Para certos fins, podem ser invocados interesses legítimos ao invés de consentimento. Pode ler mais informação sobre este assunto na nossa Política de Privacidade e Cookies.